[[{"header":{"parameterUnit":"m.s-1","parameterCategory":1,"la1":30.2991,"la2":30.254,"lo1":-89.0895,"lo2":-89.0444,"dy":0.0017,"dx":0.0017,"nx":28,"ny":28,"refTime":"2025-01-25T03:00:00:Z","depth":0,"parameterNumber":2,"parameterNumberName":"U-component_of_WINDS"},"data":[0,0,0,0,0,0,0,0,0,0,0,0,0,0,0,0,0,0,0,0,0,0,0,0,0,0,0,0,0,0,0,0,0,0,0,0,0,0,0,0,0,0,0,0,0,0,0,0,0,0,0,0,0,0,0,0,0,0,2.4923,2.4923,0,2.4967,2.4968,2.4968,2.4915,2.4913,2.4911,2.4909,2.4954,2.4957,2.496,0,0,0,0,0,0,0,0,0,0,0,0,0,2.4793,2.4796,2.4923,2.4923,2.4924,2.4967,2.4968,2.4968,2.4916,2.4913,2.4911,2.4909,2.4953,2.4957,2.4961,0,0,0,0,0,0,0,0,0,0,0,0,0,2.4845,2.4797,2.4923,2.4903,2.4901,2.4967,2.4968,2.4969,2.4916,2.4913,2.491,2.4907,2.4952,2.4957,2.4961,2.5048,0,0,2.4975,2.4977,0,0,0,0,0,0,0,0,2.4842,2.485,2.4905,2.4904,2.4903,2.4933,2.4938,2.4995,2.4917,2.4911,2.4909,2.4906,2.4949,2.4954,2.4969,2.505,2.5052,2.4975,2.4978,2.498,2.4981,0,0,0,0,0,0,0,2.4838,2.4847,2.494,2.4906,2.4905,2.4892,2.4896,2.4949,2.4946,2.4911,2.4907,2.4913,2.4948,2.4965,2.4969,2.5053,2.4975,2.4979,2.4982,2.4984,2.521,2.5214,0,0,0,0,0,0,2.4837,2.4845,2.4939,2.4942,2.4865,2.4897,2.4901,2.4926,2.4945,2.4945,2.4916,2.491,2.4958,2.4964,2.4971,2.5076,2.498,2.4984,2.4987,2.5207,2.5211,2.5215,0,0,0,0,0,0,2.4835,2.4846,2.4937,2.4892,2.4903,2.4902,2.493,2.4929,2.4945,2.4949,2.4948,2.4933,2.4956,2.4964,2.503,2.5076,2.4986,2.499,2.5203,2.5208,2.5213,2.5285,0,0,0,0,0,0,2.4831,2.4845,2.4878,2.4893,2.4905,2.4995,2.4933,2.4932,2.4953,2.4947,2.4965,2.4965,2.4954,2.5023,2.5034,2.5081,2.4994,2.5199,2.5206,2.5211,2.5278,2.5292,2.5303,0,0,0,0,0,2.4827,2.4896,2.488,2.4892,2.4946,2.4998,2.5005,2.4992,2.4957,2.499,2.4993,2.4964,2.507,2.5031,2.5042,2.5091,2.5196,2.5204,2.5211,2.5273,2.5289,2.5303,0,0,0,0,0,0,2.4885,2.4897,2.488,2.4956,2.4977,2.4989,2.503,2.5009,2.5039,2.5032,2.5014,2.5019,2.5089,2.5096,2.5053,2.5178,2.5127,2.5137,2.517,2.5186,2.5198,2.5195,2.4998,0,0,0,0,0,2.4907,2.4948,2.4957,2.5023,2.5034,2.5031,2.5053,2.5041,2.5061,2.507,2.5077,2.5098,2.5136,2.5161,2.5196,2.5279,2.5284,2.5319,2.5331,2.5341,2.5351,2.5397,2.5414,2.5239,2.5239,2.5239,0,0,2.4953,2.4964,2.4991,2.5035,2.505,2.5093,2.5038,2.5086,2.5118,2.5077,2.5139,2.5146,2.5168,2.5244,2.5277,2.5252,2.54,2.5351,2.5359,2.5363,2.5407,2.5423,2.5438,2.5244,2.5243,2.5242,0,0,2.5058,2.507,2.5128,2.5144,2.5167,2.5165,2.5179,2.5195,2.5198,2.5261,2.5232,2.527,2.5335,2.5353,2.537,2.5485,2.546,2.5497,2.5561,2.5607,2.5621,2.5633,2.5676,2.5691,2.5506,2.5506,2.5506,0,2.5111,2.5175,2.516,2.5211,2.5232,2.5198,2.5257,2.5273,2.5306,2.5322,2.5293,2.5376,2.5388,2.5468,2.5496,2.5511,2.5528,2.5495,2.562,2.5632,2.5643,2.5684,2.57,2.551,2.551,2.5509,2.5509,0,2.5241,2.5286,2.533,2.5364,2.539,2.5444,2.5439,2.5467,2.5453,2.5454,2.552,2.5534,2.5572,2.559,2.5577,2.5669,2.5653,2.5623,2.5572,2.5665,2.5702,2.5718,2.5517,2.5515,2.5514,2.5513,0,0,2.5383,2.541,2.5426,2.5442,2.5466,2.5501,2.5555,2.5593,2.5618,2.5642,2.5688,2.5745,2.5718,2.5738,2.5727,2.5767,2.5859,2.5732,2.5732,2.5756,2.5964,2.5987,2.6005,2.5843,2.5846,2.5848,2.5963,0,2.5489,2.5583,2.5572,2.5661,2.5704,2.5673,2.572,2.574,2.5743,2.578,2.5783,2.5824,2.5784,2.5797,2.5835,2.584,2.5901,2.5831,2.5886,2.5888,2.5882,2.6025,2.6049,2.6156,2.5977,2.5979,2.5981,0,2.5625,2.5656,2.575,2.577,2.5787,2.583,2.5865,2.59,2.5923,2.5923,2.5947,2.5929,2.5984,2.5932,2.6009,2.5962,2.5984,2.599,2.5994,2.5999,2.5941,2.6034,2.6189,2.6206,2.6004,2.6002,2.6,0,2.5721,2.5786,2.5851,2.5866,2.589,2.5921,2.5932,2.5952,2.5977,2.6008,2.6024,2.606,2.6081,2.611,2.6104,2.6066,2.6183,2.613,2.6185,2.6185,2.6211,2.6209,2.6372,2.6224,2.6223,2.6223,2.6223,0,2.5842,2.5901,2.5895,2.5935,2.6001,2.5989,2.6054,2.6062,2.6081,2.6122,2.6098,2.6137,2.6126,2.6166,2.6161,2.6226,2.6235,2.6237,2.6235,2.624,2.624,2.6254,2.6247,2.6227,2.6226,2.6226,2.6225,0,2.596,2.5958,2.6027,2.6045,2.6051,2.6099,2.6115,2.6153,2.6155,2.6208,2.622,2.6223,2.6268,2.6265,2.6316,2.6313,2.6394,2.6383,2.6387,2.6384,2.644,2.6436,2.6619,2.6643,2.6478,2.6479,2.6481,0,2.6037,2.6082,2.6105,2.6132,2.6146,2.6188,2.6214,2.6204,2.6231,2.6262,2.6298,2.6341,2.6375,2.645,2.6457,2.6497,2.6487,2.6549,2.6493,2.6497,2.649,2.6487,2.6493,2.656,2.6561,2.6563,2.6564,0,2.6175,2.6172,2.6209,2.6248,2.6279,2.6308,2.6335,2.6358,2.6351,2.6384,2.643,2.6457,2.6511,2.6555,2.6593,2.6605,2.6585,2.6582,2.6597,2.6602,2.6603,2.6605,2.6418,2.6578,2.6576,2.6575,2.6575,2.6574,2.6275,2.6314,2.6338,2.6381,2.64,2.6427,2.6464,2.6472,2.651,2.6553,2.6545,2.6599,2.6623,2.6672,2.6688,2.673,2.6708,2.673,2.6735,2.6741,2.6748,2.6596,2.6737,2.6737,2.6736,2.6736,2.6736,0,2.6413,2.6427,2.6467,2.6506,2.654,2.6518,2.6547,2.6578,2.6625,2.6649,2.6684,2.6739,2.6783,2.6794,2.6836,2.6868,2.6859,2.6879,2.6877,2.6881,2.6765,2.6748,2.6885,2.6885,2.6885,2.6885,2.6885,2.6885,2.6488,2.6554,2.6555,2.6631,2.6645,2.6697,2.6716,2.6741,2.676,2.6823,2.6859,2.6867,2.6886,2.693,2.6969,2.6972,2.6989,2.7013,2.7012,2.6903,2.6888,2.6874,2.6859,2.7017,2.7017,2.7124,2.7125,2.7126]},{"header":{"parameterUnit":"m.s-1","parameterCategory":1,"la1":30.2991,"la2":30.254,"lo1":-89.0895,"lo2":-89.0444,"dy":0.0017,"dx":0.0017,"nx":28,"ny":28,"refTime":"2025-01-25T03:00:00:Z","depth":0,"parameterNumber":3,"parameterNumberName":"V-component_of_WINDS"},"data":[0,0,0,0,0,0,0,0,0,0,0,0,0,0,0,0,0,0,0,0,0,0,0,0,0,0,0,0,0,0,0,0,0,0,0,0,0,0,0,0,0,0,0,0,0,0,0,0,0,0,0,0,0,0,0,0,0,0,-2.7616,-2.7617,0,-2.7697,-2.7698,-2.7698,-2.7642,-2.7639,-2.7637,-2.7634,-2.7714,-2.7719,-2.7723,0,0,0,0,0,0,0,0,0,0,0,0,0,-2.7411,-2.7416,-2.7616,-2.7617,-2.7618,-2.7697,-2.7698,-2.7699,-2.7642,-2.7639,-2.7636,-2.7633,-2.7713,-2.7718,-2.7724,0,0,0,0,0,0,0,0,0,0,0,0,0,-2.7497,-2.7417,-2.7616,-2.7599,-2.7599,-2.7696,-2.7698,-2.7699,-2.7643,-2.7639,-2.7635,-2.7632,-2.7711,-2.7718,-2.7724,-2.7842,0,0,-2.7745,-2.7748,0,0,0,0,0,0,0,0,-2.7492,-2.7505,-2.7601,-2.7601,-2.76,-2.7655,-2.7655,-2.7747,-2.7644,-2.7626,-2.7634,-2.763,-2.7698,-2.7705,-2.7729,-2.7846,-2.7849,-2.7746,-2.775,-2.7753,-2.7754,0,0,0,0,0,0,0,-2.7486,-2.7501,-2.7648,-2.7602,-2.7602,-2.7587,-2.7595,-2.7672,-2.7682,-2.7627,-2.7623,-2.7634,-2.7697,-2.7722,-2.773,-2.785,-2.7745,-2.7751,-2.7755,-2.7758,-2.8069,-2.8073,0,0,0,0,0,0,-2.7482,-2.7496,-2.7645,-2.765,-2.7536,-2.7594,-2.7603,-2.7641,-2.7681,-2.7683,-2.7637,-2.7631,-2.7713,-2.7722,-2.7733,-2.7874,-2.7752,-2.7759,-2.7763,-2.8065,-2.807,-2.8074,0,0,0,0,0,0,-2.7478,-2.7496,-2.7642,-2.7572,-2.759,-2.7602,-2.7645,-2.7645,-2.767,-2.7688,-2.769,-2.7661,-2.771,-2.7723,-2.7816,-2.7876,-2.7762,-2.7768,-2.806,-2.8066,-2.8072,-2.8156,0,0,0,0,0,0,-2.7472,-2.7495,-2.754,-2.7574,-2.7594,-2.7724,-2.7649,-2.7649,-2.7683,-2.7675,-2.7712,-2.7714,-2.7708,-2.7806,-2.7822,-2.7883,-2.7773,-2.8054,-2.8063,-2.807,-2.8148,-2.8165,-2.8179,0,0,0,0,0,-2.7465,-2.756,-2.7543,-2.7561,-2.7651,-2.7728,-2.7739,-2.7731,-2.7688,-2.7733,-2.7745,-2.7713,-2.7866,-2.7816,-2.7834,-2.7897,-2.805,-2.806,-2.8069,-2.8141,-2.8162,-2.8179,0,0,0,0,0,0,-2.7532,-2.7564,-2.7545,-2.7654,-2.7689,-2.7718,-2.7775,-2.7753,-2.78,-2.7791,-2.7778,-2.7787,-2.7884,-2.79,-2.7843,-2.8014,-2.7951,-2.7965,-2.8,-2.8019,-2.8034,-2.8029,-2.7779,0,0,0,0,0,-2.756,-2.762,-2.7645,-2.7738,-2.7757,-2.7763,-2.7797,-2.7787,-2.7823,-2.7837,-2.7855,-2.789,-2.7946,-2.7984,-2.8036,-2.815,-2.8157,-2.8203,-2.8218,-2.8231,-2.8243,-2.8305,-2.8325,-2.8105,-2.8105,-2.8105,0,0,-2.7617,-2.7642,-2.7681,-2.7752,-2.7778,-2.7841,-2.7776,-2.7845,-2.7892,-2.7847,-2.7936,-2.7951,-2.7989,-2.8093,-2.814,-2.8109,-2.8305,-2.8243,-2.8253,-2.8258,-2.8317,-2.8337,-2.8356,-2.8112,-2.8111,-2.811,0,0,-2.7753,-2.7778,-2.7859,-2.7887,-2.7927,-2.7931,-2.7951,-2.7984,-2.7993,-2.8082,-2.805,-2.8105,-2.8202,-2.8231,-2.8258,-2.8406,-2.8379,-2.8424,-2.8504,-2.8565,-2.8582,-2.8597,-2.8651,-2.867,-2.8436,-2.8436,-2.8436,0,-2.7819,-2.7913,-2.7903,-2.7976,-2.8008,-2.7972,-2.8054,-2.8081,-2.8136,-2.8159,-2.8124,-2.8246,-2.8269,-2.838,-2.8416,-2.8439,-2.8461,-2.842,-2.858,-2.8596,-2.861,-2.8661,-2.8681,-2.8441,-2.844,-2.844,-2.8439,0,-2.7992,-2.8058,-2.8118,-2.8174,-2.8214,-2.829,-2.8292,-2.8332,-2.832,-2.8328,-2.8419,-2.8446,-2.8503,-2.8529,-2.8517,-2.8638,-2.8618,-2.8582,-2.8519,-2.8636,-2.8684,-2.8703,-2.8448,-2.8447,-2.8445,-2.8444,0,0,-2.8173,-2.8223,-2.8245,-2.8271,-2.8313,-2.8364,-2.8439,-2.8496,-2.8532,-2.8571,-2.8634,-2.8717,-2.8685,-2.8716,-2.8707,-2.876,-2.8877,-2.8717,-2.8718,-2.8747,-2.9013,-2.904,-2.9063,-2.8859,-2.8862,-2.8865,-2.901,0,-2.8312,-2.8444,-2.8438,-2.8561,-2.8622,-2.8589,-2.8654,-2.8687,-2.8696,-2.8749,-2.8758,-2.8818,-2.877,-2.8789,-2.884,-2.8852,-2.893,-2.8841,-2.8917,-2.892,-2.8909,-2.9087,-2.9116,-2.9251,-2.9028,-2.9031,-2.9034,0,-2.8492,-2.8539,-2.8669,-2.8703,-2.8729,-2.8788,-2.884,-2.8891,-2.8928,-2.8931,-2.8966,-2.8949,-2.9024,-2.896,-2.9063,-2.9003,-2.9034,-2.9044,-2.9049,-2.9056,-2.8984,-2.91,-2.9294,-2.9314,-2.9063,-2.906,-2.9058,0,-2.8612,-2.8707,-2.8797,-2.882,-2.8862,-2.8905,-2.8924,-2.8957,-2.8992,-2.9038,-2.9061,-2.9114,-2.9144,-2.9185,-2.9183,-2.9136,-2.9288,-2.9223,-2.9293,-2.9293,-2.9327,-2.9325,-2.9529,-2.9346,-2.9345,-2.9345,-2.9345,0,-2.8768,-2.8849,-2.8852,-2.8908,-2.8997,-2.8989,-2.9078,-2.9092,-2.9122,-2.918,-2.9154,-2.9208,-2.9201,-2.9256,-2.9254,-2.9341,-2.9354,-2.9358,-2.9357,-2.9361,-2.9361,-2.9381,-2.9372,-2.935,-2.9349,-2.9348,-2.9347,0,-2.8917,-2.8922,-2.9018,-2.9051,-2.9061,-2.9126,-2.9153,-2.9206,-2.9213,-2.9286,-2.9303,-2.9314,-2.9377,-2.9378,-2.945,-2.9449,-2.9555,-2.9543,-2.9543,-2.9541,-2.961,-2.9604,-2.9835,-2.9865,-2.9662,-2.9664,-2.9666,0,-2.9017,-2.9078,-2.9118,-2.9155,-2.9177,-2.9237,-2.9274,-2.9268,-2.9307,-2.9354,-2.9401,-2.9462,-2.951,-2.9612,-2.9626,-2.9681,-2.967,-2.9747,-2.9678,-2.9681,-2.9672,-2.9669,-2.9675,-2.9761,-2.9763,-2.9765,-2.9767,0,-2.9193,-2.9193,-2.9247,-2.9302,-2.9346,-2.9389,-2.9429,-2.9461,-2.9459,-2.9504,-2.9569,-2.9607,-2.9681,-2.9741,-2.9795,-2.9814,-2.9791,-2.9788,-2.9807,-2.9812,-2.981,-2.9813,-2.958,-2.9783,-2.9781,-2.978,-2.9779,-2.9779,-2.9321,-2.9375,-2.9411,-2.9472,-2.9502,-2.9539,-2.9591,-2.9605,-2.9659,-2.972,-2.9713,-2.9785,-2.982,-2.989,-2.9914,-2.997,-2.9943,-2.997,-2.9977,-2.9984,-2.9992,-2.9801,-2.9979,-2.9979,-2.9978,-2.9978,-2.9978,0,-2.9497,-2.9519,-2.9575,-2.9632,-2.968,-2.9655,-2.9698,-2.9739,-2.9803,-2.9839,-2.9888,-2.9962,-3.0021,-3.004,-3.0097,-3.0138,-3.0129,-3.0154,-3.0151,-3.0156,-3.0013,-2.9991,-3.016,-3.016,-3.016,-3.016,-3.016,-3.016,-2.9594,-2.9684,-2.9688,-2.9792,-2.9813,-2.9885,-2.9911,-2.9946,-2.9975,-3.006,-3.0109,-3.0121,-3.015,-3.0209,-3.0262,-3.0266,-3.0289,-3.0318,-3.0318,-3.0184,-3.0165,-3.0148,-3.0127,-3.0323,-3.0323,-3.0456,-3.0457,-3.0458]}]]